User: anonymous   Login
Location: Unspecified
(0.0000°N, 0.0000°E)
Time: 09:29:34
(UTC+00:00)
Language:

USA 207 - Orbit

View from above orbital plane
View from above orbital plane
View from above satellite
View from above satellite

Ground track
Ground track

The orbit data is extracted from the following two-line orbital elements,

1 35815U 09047A   14292.70135991 0.00000000  00000-0  00000-0 0    08
2 35815   0.0460 328.1253 0008456 359.6774   0.3221  1.00270000    00
Epoch (UTC): 19 October 2014 16:49:57
Eccentricity: 0.0008456
inclination: 0.0460°
perigee height: 35751 km
apogee height: 35822 km
right ascension of ascending node: 328.1253°
argument of perigee: 359.6774°
revolutions per day: 1.00270000
mean anomaly at epoch: 0.3221°
orbit number at epoch: 0

The dashed part of the orbit path shows where the satellite is in the earth's shadow,  

DLR